Weather History for Tallahassee, FL

Change the Weather History Date:

Tuesday, February 12, 2013

  Actual Average Record
Temperature  
Mean Temperature 68 °F 54 °F  
Max Temperature 74 °F 67 °F 81 °F (1932)
Min Temperature 61 °F 41 °F 17 °F (1899)
Degree Days  
Heating Degree Days 0    
Month to date heating degree days 89  
Since 1 July heating degree days 807  
Cooling Degree Days 3    
Month to date cooling degree days 8  
Year to date cooling degree days 42  
Growing Degree Days 16 (Base 50)    
Moisture  
Dew Point 63 °F    
Average Humidity 91    
Maximum Humidity 97    
Minimum Humidity 84    
Precipitation  
Precipitation 0.15 in 0.15 in 3.13 in (1965)
Month to date precipitation 0.57 1.90  
Year to date precipitation 1.42 6.24  
Sea Level Pressure  
Sea Level Pressure 29.98 in    
Wind  
Wind Speed 5 mph (ENE)    
Max Wind Speed 17 mph    
Max Gust Speed 23 mph    
Visibility 5 miles    
Events Rain    
T = Trace of Precipitation, MM = Missing Value Source: NWS Daily Summary

Daily Weather History Graph

Daily Weather History Graph

Search for Another Location

Airport:

Trip Planner

Search our weather history database for the weather conditions in past years. The results will help you decide how hot, cold, wet, or windy it might be!

Date:

Astronomy

Feb. 12, 2013 Rise Set
Actual Time 7:20 AM EST 6:23 PM EST
Civil Twilight 6:55 AM EST 6:48 PM EST
Nautical Twilight 6:27 AM EST 7:16 PM EST
Astronomical Twilight 5:59 AM EST 7:44 PM EST
Moon 8:31 AM EST (2/12) 9:06 PM EST (2/12)
Length of Visible Light 11h 52m
Length of Day
11h 03m
Waxing Crescent, 7% of the Moon is Illuminated
Feb 12
Waxing Crescent
Feb 17
First Quarter
Feb 25
Full
Mar 4
Last Quarter
Mar 11
New

Hourly Weather History & Observations

Time (EST) Temp. Dew Point Humidity Pressure Visibility Wind Dir Wind Speed Gust Speed Precip Events Conditions
12:53 AM 64.0 °F 62.1 °F 93% 30.06 in 5.0 mi North 3.5 mph - 0.02 in Rain Light Rain
1:12 AM 62.6 °F 60.8 °F 94% 30.06 in 6.0 mi Variable 4.6 mph 17.3 mph 0.00 in Rain Light Rain
1:23 AM 62.6 °F 59.0 °F 88% 30.06 in 9.0 mi NE 6.9 mph - 0.00 in   Overcast
1:31 AM 62.6 °F 59.0 °F 88% 30.06 in 7.0 mi ENE 3.5 mph - 0.00 in   Overcast
1:41 AM 62.6 °F 59.0 °F 88% 30.05 in 6.0 mi ENE 6.9 mph - 0.01 in   Overcast
1:53 AM 62.1 °F 59.0 °F 90% 30.05 in 7.0 mi NE 5.8 mph - 0.01 in   Overcast
2:31 AM 62.6 °F 59.0 °F 88% 30.04 in 5.0 mi ENE 3.5 mph - N/A   Overcast
2:53 AM 61.0 °F 59.0 °F 93% 30.03 in 6.0 mi Calm Calm - N/A   Overcast
3:49 AM 60.8 °F 59.0 °F 94% 30.02 in 2.5 mi Calm Calm - N/A   Overcast
3:53 AM 61.0 °F 59.0 °F 93% 30.02 in 2.5 mi NE 3.5 mph - N/A   Overcast
4:05 AM 62.6 °F 59.0 °F 88% 30.02 in 3.0 mi Calm Calm - N/A   Overcast
4:16 AM 62.6 °F 59.0 °F 88% 30.02 in 2.5 mi East 3.5 mph - N/A   Overcast
4:50 AM 62.6 °F 60.8 °F 94% 30.02 in 1.5 mi Calm Calm - N/A   Overcast
4:53 AM 62.1 °F 60.1 °F 93% 30.02 in 1.5 mi ESE 4.6 mph - N/A   Overcast
5:39 AM 62.6 °F 60.8 °F 94% 30.03 in 2.0 mi NNW 3.5 mph - N/A   Overcast
5:48 AM 62.6 °F 60.8 °F 94% 30.03 in 1.2 mi NNW 5.8 mph - 0.00 in   Light Drizzle
5:53 AM 62.1 °F 60.1 °F 93% 30.04 in 1.0 mi NW 8.1 mph - 0.00 in   Drizzle
6:53 AM 61.0 °F 59.0 °F 93% 30.04 in 1.5 mi Calm Calm - 0.00 in Rain Light Rain
7:14 AM 60.8 °F 59.0 °F 94% 30.04 in 2.5 mi North 3.5 mph - 0.00 in   Overcast
7:39 AM 62.6 °F 59.0 °F 88% 30.04 in 3.0 mi NE 3.5 mph - 0.00 in   Overcast
7:53 AM 62.1 °F 60.1 °F 93% 30.04 in 3.0 mi Calm Calm - 0.00 in   Overcast
8:46 AM 62.6 °F 60.8 °F 94% 30.05 in 2.0 mi NNE 3.5 mph - 0.00 in Rain Light Rain
8:53 AM 62.1 °F 60.1 °F 93% 30.04 in 2.0 mi NE 3.5 mph - 0.00 in   Overcast
9:04 AM 62.6 °F 60.8 °F 94% 30.05 in 1.2 mi North 5.8 mph - N/A   Overcast
9:53 AM 63.0 °F 60.1 °F 90% 30.05 in 1.5 mi NE 4.6 mph - 0.01 in   Light Drizzle
10:12 AM 62.6 °F 60.8 °F 94% 30.04 in 2.5 mi NE 4.6 mph - 0.01 in Rain Light Rain
10:40 AM 62.6 °F 60.8 °F 94% 30.04 in 3.0 mi Calm Calm - 0.02 in Rain Light Rain
10:53 AM 63.0 °F 60.1 °F 90% 30.03 in 3.0 mi ENE 5.8 mph - 0.03 in Rain Light Rain
11:07 AM 62.6 °F 60.8 °F 94% 30.03 in 2.0 mi ENE 4.6 mph - 0.00 in Rain Light Rain
11:34 AM 62.6 °F 60.8 °F 94% 30.04 in 3.0 mi Calm Calm - 0.03 in Rain Light Rain
11:53 AM 63.0 °F 61.0 °F 93% 30.02 in 1.0 mi Calm Calm - 0.05 in Rain Rain
12:53 PM 64.0 °F 62.1 °F 93% 30.00 in 2.0 mi Calm Calm - 0.03 in Rain Light Rain
1:26 PM 64.4 °F 62.6 °F 94% 29.98 in 1.2 mi ENE 3.5 mph - 0.00 in   Overcast
1:53 PM 64.9 °F 63.0 °F 93% 29.98 in 0.8 mi WNW 3.5 mph - 0.00 in   Overcast
2:28 PM 64.4 °F 62.6 °F 94% 29.95 in 1.0 mi Calm Calm - 0.00 in Rain Light Rain
2:53 PM 66.9 °F 64.0 °F 90% 29.93 in 1.0 mi Calm Calm - 0.00 in   Overcast
3:53 PM 68.0 °F 64.9 °F 90% 29.90 in 9.0 mi East 3.5 mph - N/A   Overcast
4:09 PM 69.8 °F 64.4 °F 83% 29.89 in 10.0 mi East 3.5 mph - N/A   Overcast
4:18 PM 69.8 °F 66.2 °F 88% 29.89 in 2.0 mi East 3.5 mph - N/A   Overcast
4:53 PM 70.0 °F 66.0 °F 87% 29.87 in 2.0 mi Calm Calm - N/A   Overcast
4:55 PM 69.8 °F 66.2 °F 88% 29.87 in 10.0 mi Calm Calm - N/A   Overcast
4:57 PM 69.8 °F 66.2 °F 88% 29.87 in 10.0 mi Calm Calm - N/A   Overcast
5:53 PM 72.0 °F 68.0 °F 87% 29.86 in 9.0 mi SSE 8.1 mph - N/A   Overcast
6:09 PM 71.6 °F 68.0 °F 88% 29.86 in 9.0 mi South 12.7 mph - N/A   Overcast
6:53 PM 70.0 °F 66.9 °F 90% 29.84 in 6.0 mi SSE 13.8 mph 20.7 mph N/A   Overcast
7:53 PM 70.0 °F 66.9 °F 90% 29.85 in 10.0 mi South 11.5 mph 17.3 mph N/A   Overcast
8:53 PM 72.0 °F 68.0 °F 87% 29.85 in 10.0 mi South 9.2 mph 20.7 mph N/A   Overcast
9:49 PM 73.4 °F 68.0 °F 83% 29.85 in 10.0 mi SSW 11.5 mph 20.7 mph N/A   Overcast
9:53 PM 73.0 °F 68.0 °F 84% 29.85 in 10.0 mi SSW 12.7 mph 23.0 mph N/A   Overcast
10:50 PM 73.4 °F 68.0 °F 83% 29.85 in 10.0 mi SSW 16.1 mph - 0.00 in Rain Light Rain
10:53 PM 73.0 °F 68.0 °F 84% 29.85 in 10.0 mi SSW 13.8 mph - 0.00 in Rain Light Rain
11:06 PM 73.4 °F 68.0 °F 83% 29.85 in 10.0 mi SSW 11.5 mph 20.7 mph 0.00 in   Overcast
11:53 PM 73.0 °F 69.1 °F 87% 29.84 in 10.0 mi SSW 11.5 mph - 0.00 in   Overcast